Location: Starlight Observatory
(38.4029°N, 85.8936°W)
Time: 10:07:38
(UTC-04:00)

Amateur Radio Satellites - All Passes

Search period start: 21 September 2014 09:37
Search period end: 22 September 2014 09:37
Location: Starlight Observatory, 38.4029°N, 85.8936°W

Satellite Date Start Highest point End Downlink Frequencies (MHz)
Time Altitude Azimuth
MaSat-1 21 Sep 09:39:31 09:44:14 40° 300° (WNW) 09:48:52 437.345 MHz
SO-67 21 Sep 09:44:28 09:46:52 18° 290° (WNW) 09:49:14 435.3500 MHz FM
HO-68 21 Sep 10:06:24 10:12:57 37° 98° (E) 10:19:27 435.675 MHz FM
UOSAT-12 21 Sep 10:08:01 10:12:41 62° 242° (WSW) 10:17:15 437.025 FM, 437.400 FM
ISS 21 Sep 10:30:43 10:33:45 33° 226° (SW) 10:36:47 145.800 FM
FUNcube-1 21 Sep 10:59:27 11:02:04 15° 91° (E) 11:04:40 145.950 - 145.970 MHz USB
Oscar 11 21 Sep 11:03:30 11:07:35 39° 98° (E) 11:11:38 145.825 FM, Beacon 2401.500 USB
UKube-1 21 Sep 11:21:50 11:26:13 87° 104° (ESE) 11:30:34 145.840 MHz, 145.915 MHz
RS-15 21 Sep 11:37:24 11:45:37 23° 27° (NNE) 11:53:59 29.354 - 29.394 USB, Beacon 29.352 USB
HO-68 21 Sep 11:54:02 12:00:36 41° 295° (WNW) 12:07:11 435.675 MHz FM
Sapphire 21 Sep 12:19:33 12:24:36 42° 111° (ESE) 12:29:41 437.095 MHz 1200 baud AX-25 AFSK
FUNcube-1 21 Sep 12:34:15 12:38:43 49° 287° (WNW) 12:43:06 145.950 - 145.970 MHz USB
Oscar 11 21 Sep 12:40:36 12:43:26 17° 294° (WNW) 12:46:16 145.825 FM, Beacon 2401.500 USB
PCSat 21 Sep 12:45:57 12:51:20 80° 116° (ESE) 12:56:47 145.825 MHz
Oscar 16 21 Sep 12:56:10 12:57:38 11° 60° (ENE) 12:59:06 437.025 USB, Beacon 2401.1428
JAS-1B 21 Sep 12:59:59 13:02:52 12° 57° (ENE) 13:05:35 435.800 - 435.900 CW/SSB
ITAMSAT 1 21 Sep 13:42:41 13:44:57 13° 61° (ENE) 13:47:13 435.822 SSB
Uribyol 2 21 Sep 13:45:44 13:48:34 15° 62° (ENE) 13:51:25 436.500 FM
RS-15 21 Sep 13:49:31 14:00:37 67° 55° (NE) 14:12:08 29.354 - 29.394 USB, Beacon 29.352 USB
Oscar 19 21 Sep 13:52:22 13:57:07 38° 70° (ENE) 14:01:53 437.125 CW, 437.150 USB
Sapphire 21 Sep 14:03:37 14:08:09 27° 309° (NW) 14:12:43 437.095 MHz 1200 baud AX-25 AFSK
AO-27 21 Sep 14:15:49 14:20:07 27° 67° (ENE) 14:24:27 436.795 MHz FM
AO-Echo 21 Sep 14:29:07 14:33:29 38° 71° (ENE) 14:37:50 ?
Oscar 16 21 Sep 14:31:00 14:36:12 89° 256° (WSW) 14:41:26 437.025 USB, Beacon 2401.1428
PCSat 21 Sep 14:32:04 14:35:24 16° 315° (NW) 14:38:45 145.825 MHz
JAS-1B 21 Sep 14:43:59 14:52:32 70° 73° (ENE) 14:59:40 435.800 - 435.900 CW/SSB
ITAMSAT 1 21 Sep 15:18:36 15:23:46 77° 257° (WSW) 15:28:57 435.822 SSB
Gurwin Techsat 1B 21 Sep 15:18:42 15:23:47 50° 72° (ENE) 15:28:55 435.225 FM
Uribyol 2 21 Sep 15:22:20 15:27:27 66° 258° (WSW) 15:32:38 436.500 FM
Oscar 19 21 Sep 15:32:21 15:36:31 24° 265° (W) 15:40:43 437.125 CW, 437.150 USB
Uosat F 21 Sep 15:45:11 15:45:46 10° 59° (ENE) 15:46:21 435.120 FM
TMSAT-1 21 Sep 15:54:12 15:59:28 80° 75° (ENE) 16:04:47 436.925 FM
AO-27 21 Sep 15:54:51 15:59:29 34° 263° (W) 16:04:10 436.795 MHz FM
RS-15 21 Sep 16:02:45 16:12:14 34° 254° (WSW) 16:22:05 29.354 - 29.394 USB, Beacon 29.352 USB
AO-Echo 21 Sep 16:09:00 16:12:23 19° 266° (W) 16:15:46 ?
AO-7 21 Sep 16:22:18 16:30:07 48° 64° (ENE) 16:37:57 29.400 - 29.500 MHz
JAS-1B 21 Sep 16:37:00 16:43:19 23° 265° (W) 16:48:58 435.800 - 435.900 CW/SSB
Saudisat 1A 21 Sep 16:52:32 16:56:10 26° 112° (ESE) 16:59:51 436.775 MHz
Gurwin Techsat 1B 21 Sep 17:00:23 17:04:01 19° 267° (W) 17:07:40 435.225 FM
Uosat F 21 Sep 17:18:46 17:23:46 89° 76° (ENE) 17:28:48 435.120 FM
TMSAT-1 21 Sep 17:38:30 17:39:57 11° 271° (W) 17:41:25 436.925 FM
MaSat-1 21 Sep 17:57:52 18:01:00 25° 56° (NE) 18:03:44 437.345 MHz
AO-7 21 Sep 18:15:31 18:22:59 37° 262° (W) 18:30:30 29.400 - 29.500 MHz
OPAL 21 Sep 18:29:14 18:34:23 66° 104° (ESE) 18:39:24 ?
JAS-2 21 Sep 18:31:11 18:36:21 60° 73° (ENE) 18:41:27 435.800 - 435.900 CW/SSB, 435.910 FM
Saudisat 1A 21 Sep 18:31:44 18:35:38 31° 309° (NW) 18:39:34 436.775 MHz
Hamsat 21 Sep 18:39:51 18:44:09 64° 75° (ENE) 18:48:28 145.90 MHz
KITSAT 1 21 Sep 19:10:49 19:18:06 39° 108° (ESE) 19:25:24 435.175 FM
STRAND 1 21 Sep 19:15:54 19:17:56 12° 91° (E) 19:19:57 ?
MaSat-1 21 Sep 19:35:12 19:37:22 16° 258° (WSW) 19:39:20 437.345 MHz
OPAL 21 Sep 20:09:44 20:12:39 15° 300° (WNW) 20:15:33 ?
SO-67 21 Sep 20:14:41 20:18:07 70° 260° (W) 20:21:35 435.3500 MHz FM
JAS-2 21 Sep 20:19:27 20:21:55 13° 269° (W) 20:24:23 435.800 - 435.900 CW/SSB, 435.910 FM
Hamsat 21 Sep 20:20:24 20:20:29 10° 270° (W) 20:20:35 145.90 MHz
HO-68 21 Sep 20:34:26 20:39:56 25° 60° (ENE) 20:45:26 435.675 MHz FM
STRAND 1 21 Sep 20:52:28 20:57:35 71° 286° (WNW) 21:02:42 ?
KITSAT 1 21 Sep 21:05:37 21:13:19 47° 307° (NW) 21:21:05 435.175 FM
Sapphire 21 Sep 21:09:08 21:13:42 27° 51° (NE) 21:18:14 437.095 MHz 1200 baud AX-25 AFSK
PCSat 21 Sep 21:35:31 21:40:45 46° 57° (ENE) 21:45:55 145.825 MHz
FUNcube-1 21 Sep 21:56:30 21:57:23 11° 62° (ENE) 21:58:16 145.950 - 145.970 MHz USB
Oscar 11 21 Sep 21:57:21 22:01:00 27° 69° (ENE) 22:04:39 145.825 FM, Beacon 2401.500 USB
AO-40 21 Sep 22:08:32 02:52:17 38° 140° (SE) 04:24:11 Beacon 2401.320
UKube-1 21 Sep 22:15:42 22:19:58 62° 74° (ENE) 22:24:15 145.840 MHz, 145.915 MHz
HO-68 21 Sep 22:20:02 22:27:04 63° 257° (WSW) 22:34:10 435.675 MHz FM
Sapphire 21 Sep 22:52:09 22:57:15 43° 249° (WSW) 23:02:20 437.095 MHz 1200 baud AX-25 AFSK
SO-50 21 Sep 22:52:52 22:57:20 86° 301° (WNW) 23:01:56 436.795 FM
KITSAT 1 21 Sep 23:07:28 23:11:04 13° 332° (NNW) 23:14:40 435.175 FM
PCSat 21 Sep 23:19:39 23:23:49 23° 254° (WSW) 23:27:57 145.825 MHz
FUNcube-1 21 Sep 23:28:41 23:33:05 74° 258° (WSW) 23:37:37 145.950 - 145.970 MHz USB
Oscar 11 21 Sep 23:33:31 23:37:06 25° 265° (W) 23:40:43 145.825 FM, Beacon 2401.500 USB
UKube-1 21 Sep 23:55:53 23:56:32 10° 269° (W) 23:57:12 145.840 MHz, 145.915 MHz
UOSAT-12 22 Sep 00:17:29 00:21:59 57° 117° (ESE) 00:26:35 437.025 FM, 437.400 FM
SO-50 22 Sep 00:36:47 00:38:37 12° 320° (NW) 00:40:29 436.795 FM
Oscar 10/S400 22 Sep 01:07:54 02:06:10 51° 214° (SW) 09:11:19 145.825 - 145.975 CW/USB, Beacon 145.810 USB
Saudisat 1A 22 Sep 01:20:45 01:23:38 17° 45° (NE) 01:26:30 436.775 MHz
PANSAT 22 Sep 01:26:54 01:28:49 13° 167° (SSE) 01:30:44 not established
ISS 22 Sep 01:36:13 01:38:24 17° 130° (SE) 01:40:36 145.800 FM
UOSAT-12 22 Sep 01:59:13 02:02:30 19° 315° (NW) 02:05:49 437.025 FM, 437.400 FM
Oscar 19 22 Sep 02:06:55 02:09:43 15° 91° (E) 02:12:30 437.125 CW, 437.150 USB
JAS-1B 22 Sep 02:33:24 02:36:13 14° 91° (E) 02:39:03 435.800 - 435.900 CW/SSB
AO-27 22 Sep 02:33:30 02:33:50 10° 89° (E) 02:34:09 436.795 MHz FM
AO-Echo 22 Sep 02:38:46 02:41:22 14° 92° (E) 02:44:00 ?
Oscar 16 22 Sep 02:44:36 02:49:22 36° 98° (E) 02:54:05 437.025 USB, Beacon 2401.1428
Saudisat 1A 22 Sep 02:59:14 03:03:34 57° 242° (WSW) 03:07:52 436.775 MHz
PANSAT 22 Sep 03:05:38 03:08:21 18° 180° (S) 03:11:03 not established
KITSAT 1 22 Sep 03:05:48 03:10:59 18° 35° (NE) 03:16:09 435.175 FM
ISS 22 Sep 03:11:37 03:14:50 47° 325° (NW) 03:18:04 145.800 FM
ITAMSAT 1 22 Sep 03:33:09 03:38:07 43° 99° (E) 03:43:04 435.822 SSB
Uribyol 2 22 Sep 03:36:37 03:41:42 50° 100° (E) 03:46:45 436.500 FM
Gurwin Techsat 1B 22 Sep 03:37:06 03:41:14 23° 94° (E) 03:45:20 435.225 FM
Oscar 19 22 Sep 03:44:21 03:49:26 60° 287° (WNW) 03:54:28 437.125 CW, 437.150 USB
OPAL 22 Sep 04:07:24 04:09:34 13° 58° (ENE) 04:11:45 ?
AO-27 22 Sep 04:08:41 04:13:56 84° 285° (WNW) 04:19:09 436.795 MHz FM
RS-15 22 Sep 04:11:22 04:21:46 48° 110° (ESE) 04:31:58 29.354 - 29.394 USB, Beacon 29.352 USB
TMSAT-1 22 Sep 04:11:54 04:16:45 36° 97° (E) 04:21:34 436.925 FM
AO-Echo 22 Sep 04:15:38 04:20:26 58° 286° (WNW) 04:25:22 ?
JAS-1B 22 Sep 04:21:49 04:27:27 64° 287° (WNW) 04:33:10 435.800 - 435.900 CW/SSB
Oscar 16 22 Sep 04:24:20 04:28:31 25° 293° (WNW) 04:32:40 437.025 USB, Beacon 2401.1428
AO-7 22 Sep 04:27:53 04:32:03 15° 90° (E) 04:36:11 29.400 - 29.500 MHz
PANSAT 22 Sep 04:45:54 04:47:53 14° 193° (SSW) 04:49:52 not established
ISS 22 Sep 04:50:46 04:52:12 12° 344° (NNW) 04:53:38 145.800 FM
KITSAT 1 22 Sep 04:59:57 05:08:01 68° 58° (ENE) 05:16:01 435.175 FM
ITAMSAT 1 22 Sep 05:13:21 05:17:18 22° 295° (WNW) 05:21:15 435.822 SSB
Gurwin Techsat 1B 22 Sep 05:16:21 05:21:19 42° 290° (WNW) 05:26:16 435.225 FM
Uribyol 2 22 Sep 05:17:07 05:20:46 20° 296° (WNW) 05:24:25 436.500 FM
Uosat F 22 Sep 05:28:23 05:32:49 31° 97° (E) 05:37:14 435.120 FM
OPAL 22 Sep 05:42:31 05:47:42 83° 255° (WSW) 05:52:57 ?
AO-27 22 Sep 05:52:03 05:52:36 10° 301° (WNW) 05:53:08 436.795 MHz FM
TMSAT-1 22 Sep 05:52:06 05:56:29 27° 293° (WNW) 06:00:52 436.925 FM
AO-7 22 Sep 06:17:32 06:25:52 84° 107° (ESE) 06:34:11 29.400 - 29.500 MHz
RS-15 22 Sep 06:23:31 06:34:03 49° 312° (NW) 06:44:33 29.354 - 29.394 USB, Beacon 29.352 USB
Hamsat 22 Sep 06:29:10 06:30:57 12° 91° (E) 06:32:42 145.90 MHz
STRAND 1 22 Sep 06:30:11 06:33:19 17° 63° (ENE) 06:36:29 ?
KITSAT 1 22 Sep 06:56:32 07:02:41 25° 256° (WSW) 07:08:50 435.175 FM
Uosat F 22 Sep 07:07:14 07:11:30 28° 292° (WNW) 07:15:45 435.120 FM
JAS-2 22 Sep 07:24:26 07:30:39 66° 102° (ESE) 07:37:40 435.800 - 435.900 CW/SSB, 435.910 FM
SO-50 22 Sep 07:25:47 07:30:32 56° 56° (NE) 07:35:19 436.795 FM
MaSat-1 22 Sep 07:41:35 07:45:06 20° 103° (ESE) 07:48:37 437.345 MHz
Hamsat 22 Sep 08:03:05 08:07:11 49° 286° (WNW) 08:11:13 145.90 MHz
ISS 22 Sep 08:05:30 08:07:58 19° 25° (NNE) 08:10:25 145.800 FM
STRAND 1 22 Sep 08:07:02 08:12:01 57° 259° (W) 08:17:03 ?
AO-7 22 Sep 08:11:52 08:17:41 22° 306° (NW) 08:23:31 29.400 - 29.500 MHz
RS-15 22 Sep 08:43:04 08:50:05 18° 343° (NNW) 08:57:10 29.354 - 29.394 USB, Beacon 29.352 USB
UOSAT-12 22 Sep 08:48:42 08:53:00 34° 51° (NE) 08:57:13 437.025 FM, 437.400 FM
SO-50 22 Sep 09:07:41 09:10:40 16° 251° (WSW) 09:13:39 436.795 FM
JAS-2 22 Sep 09:10:55 09:15:18 21° 295° (WNW) 09:20:02 435.800 - 435.900 CW/SSB, 435.910 FM
SO-67 22 Sep 09:12:41 09:16:00 45° 285° (WNW) 09:19:18 435.3500 MHz FM
MaSat-1 22 Sep 09:16:39 09:21:29 48° 298° (WNW) 09:26:13 437.345 MHz
